Location: Cremona
(45.1170°N, 10.0330°E)
Time: 08:20:55
(UTC+01:00)

ISS - Pass Details

Date: 29 January 2019
Orbit: 403 x 411 km, 51.6° (Epoch: 18 February)

Event Time Altitude Azimuth Distance (km) Brightness Sun altitude
Rises 18:14:59 0° 264° (W) 2,328 2.1 -9.5°
Reaches altitude 10° 18:17:10 10° 273° (W) 1,471 0.3 -9.9°
Maximum altitude 18:20:15 36° 343° (NNW) 665 -2.7 -10.4°
Enters shadow 18:22:46 14° 48° (NE) 1,256 -1.9 -10.8°
